EW1845 Weather Reports


Display with metric or nautical units.
time (UTC)temp
F
wind
direction
speed
MPH
gust
MPH
rain 1hr
in
rain 24hr
in
rain mn
in
humidity
%
barometer
mb
20260506043438 53 266 0.0 0.0 0.00 0.00 0.00 83 1015.7
20260506043102 53 266 0.0 0.0 0.00 0.00 0.00 82 1015.6
20260506042443 53 266 0.0 0.0 0.00 0.00 0.00 83 1015.5
20260506041502 53 266 0.0 0.0 0.00 0.00 0.00 82 1015.4
20260506041422 53 266 0.0 0.0 0.00 0.00 0.00 82 1015.4
20260506040439 53 266 0.0 0.0 0.00 0.00 0.00 82 1015.3
20260506040003 53 266 0.0 0.0 0.00 0.00 0.00 81 1015.3
20260506035457 54 266 0.0 0.0 0.00 0.00 0.00 80 1015.2
20260506034604 54 266 0.0 1.0 0.00 0.00 0.00 80 1015.1
20260506034450 54 266 0.0 0.0 0.00 0.00 0.00 79 1015.0
20260506033002 55 266 0.0 1.0 0.00 0.00 0.00 77 1014.9
20260506032340 56 261 0.0 0.0 0.00 0.00 0.00 77 1014.8
20260506031607 56 261 0.0 2.0 0.00 0.00 0.00 76 1014.7
20260506031400 57 261 0.0 0.0 0.00 0.00 0.00 76 1014.6
20260506030348 57 176 0.0 1.0 0.00 0.00 0.00 75 1014.4
20260506030104 57 236 0.0 2.0 0.00 0.00 0.00 74 1014.5
20260506025334 58 199 0.0 1.0 0.00 0.00 0.00 73 1014.3
20260506024502 57 236 0.0 3.0 0.00 0.00 0.00 74 1014.2
20260506024341 58 211 0.0 2.0 0.00 0.00 0.00 74 1014.2
20260506023102 57 194 1.0 4.0 0.00 0.00 0.00 73 1014.2
20260506021039 58 222 0.0 0.0 0.00 0.00 0.00 72 1013.8
20260506020015 58 222 0.0 0.0 0.00 0.00 0.00 72 1013.8
20260506020002 58 221 0.0 3.0 0.00 0.00 0.00 72 1013.8
20260506015016 59 245 0.0 1.0 0.00 0.00 0.00 71 1013.8
20260506014604 58 248 0.0 4.0 0.00 0.00 0.00 70 1013.8
20260506013950 59 245 0.0 4.0 0.00 0.00 0.00 70 1013.8
20260506013003 58 198 0.0 4.0 0.00 0.00 0.00 70 1013.7
20260506012923 59 190 0.0 3.0 0.00 0.00 0.00 71 1013.6
20260506011909 59 231 0.0 4.0 0.00 0.00 0.00 70 1013.7
20260506011604 59 214 0.0 4.0 0.00 0.00 0.00 71 1013.7
20260506010928 59 224 1.0 4.0 0.00 0.00 0.00 70 1013.7
20260506010106 59 200 3.0 5.0 0.00 0.00 0.00 69 1013.7
20260506005925 60 251 0.0 3.0 0.00 0.00 0.00 69 1013.7
20260506004916 60 238 1.0 5.0 0.00 0.00 0.00 69 1013.6
20260506004504 59 240 1.0 4.0 0.00 0.00 0.00 69 1013.7
20260506003911 60 233 1.0 5.0 0.00 0.00 0.00 69 1013.6
20260506003103 60 195 0.0 5.0 0.00 0.00 0.00 69 1013.6
20260506001739 60 236 0.0 6.0 0.00 0.00 0.00 69 1013.5
20260506001502 59 212 1.0 5.0 0.00 0.00 0.00 69 1013.5
20260506000752 59 259 1.0 6.0 0.00 0.00 0.00 70 1013.4
20260506000012 59 256 4.0 7.0 0.00 0.00 0.00 69 1013.6
20260505235730 59 199 1.0 4.0 0.00 0.00 0.00 70 1013.5
20260505234727 59 206 1.0 6.0 0.00 0.00 0.00 71 1013.5
20260505234604 59 221 1.0 5.0 0.00 0.00 0.00 70 1013.5
20260505233745 60 216 1.0 6.0 0.00 0.00 0.00 69 1013.6
20260505233003 59 260 2.0 7.0 0.00 0.00 0.00 70 1013.6
20260505232759 60 165 1.0 6.0 0.00 0.00 0.00 69 1013.6
20260505231814 60 190 2.0 7.0 0.00 0.00 0.00 69 1013.6
20260505231603 59 195 3.0 8.0 0.00 0.00 0.00 67 1013.6
20260505230742 60 171 2.0 7.0 0.00 0.00 0.00 67 1013.6
20260505230119 60 283 2.0 7.0 0.00 0.00 0.00 67 1013.8
20260505225713 61 224 2.0 7.0 0.00 0.00 0.00 66 1013.7
20260505224719 61 207 2.0 9.0 0.00 0.00 0.00 65 1013.7
20260505224506 60 236 2.0 10.0 0.00 0.00 0.00 66 1013.7
20260505223730 61 200 2.0 9.0 0.00 0.00 0.00 63 1013.8
20260505223102 61 156 4.0 10.0 0.00 0.00 0.00 63 1013.9
20260505222710 61 199 1.0 6.0 0.00 0.00 0.00 63 1013.8
20260505221644 62 184 1.0 8.0 0.00 0.00 0.00 59 1013.9
20260505221503 61 211 3.0 6.0 0.00 0.00 0.00 59 1013.9
20260505220647 61 229 2.0 8.0 0.00 0.00 0.00 59 1013.9
20260505220008 61 248 3.0 9.0 0.00 0.00 0.00 58 1014.0
20260505215658 61 238 2.0 9.0 0.00 0.00 0.00 58 1013.9
20260505214647 61 189 3.0 10.0 0.00 0.00 0.00 58 1013.9
20260505214609 61 194 4.0 10.0 0.00 0.00 0.00 58 1014.0
20260505213616 61 255 3.0 11.0 0.00 0.00 0.00 57 1013.9
20260505213002 61 243 4.0 12.0 0.00 0.00 0.00 58 1014.0
20260505212609 62 240 4.0 12.0 0.00 0.00 0.00 58 1013.9
20260505211626 62 229 3.0 13.0 0.00 0.00 0.00 58 1014.0
20260505211559 62 223 3.0 12.0 0.00 0.00 0.00 58 1013.9
20260505210109 62 233 3.0 11.0 0.00 0.00 0.00 57 1014.0
20260505205350 62 214 4.0 10.0 0.00 0.00 0.00 56 1014.0
20260505204602 62 243 5.0 9.0 0.00 0.00 0.00 57 1014.1
20260505203210 63 175 5.0 11.0 0.00 0.00 0.00 55 1013.9
20260505203003 63 160 5.0 12.0 0.00 0.00 0.00 54 1014.0
20260505202151 64 245 4.0 12.0 0.00 0.00 0.00 53 1013.9
20260505201607 64 196 6.0 12.0 0.00 0.00 0.00 54 1013.9
20260505200019 64 255 4.0 10.0 0.00 0.00 0.00 55 1013.9
20260505200006 64 222 7.0 12.0 0.00 0.00 0.00 55 1014.0
20260505195031 64 240 4.0 9.0 0.00 0.00 0.00 56 1014.1
20260505194606 64 136 4.0 10.0 0.00 0.00 0.00 58 1014.0
20260505194022 64 188 1.0 7.0 0.00 0.00 0.00 61 1014.1
20260505193009 61 197 4.0 9.0 0.00 0.00 0.00 63 1014.3
20260505193003 62 280 2.0 8.0 0.00 0.00 0.00 63 1014.2
20260505191942 61 210 2.0 9.0 0.00 0.00 0.00 63 1014.3
20260505190959 62 274 3.0 9.0 0.00 0.00 0.00 66 1014.3
20260505190119 60 183 4.0 9.0 0.00 0.00 0.00 66 1014.3
20260505185926 61 236 3.0 9.0 0.00 0.00 0.00 65 1014.2
20260505184903 61 238 3.0 9.0 0.00 0.00 0.00 67 1014.2
20260505184502 60 199 4.0 10.0 0.00 0.00 0.00 67 1014.3
20260505183832 61 233 2.0 8.0 0.00 0.00 0.00 67 1014.2
20260505183102 61 229 1.0 8.0 0.00 0.00 0.00 68 1014.3
20260505182850 61 204 3.0 7.0 0.00 0.00 0.00 67 1014.2
20260505181820 62 226 1.0 5.0 0.00 0.00 0.00 69 1014.2
20260505181503 61 219 3.0 6.0 0.00 0.00 0.00 68 1014.3
20260505180845 61 192 2.0 7.0 0.00 0.00 0.00 68 1014.2
20260505180003 61 230 3.0 8.0 0.00 0.00 0.00 68 1014.2
20260505174754 61 295 1.0 5.0 0.00 0.00 0.00 68 1014.0
20260505174604 61 164 3.0 6.0 0.00 0.00 0.00 67 1014.1
20260505173755 62 266 0.0 1.0 0.00 0.00 0.00 65 1014.0
20260505173001 61 25 2.0 3.0 0.00 0.00 0.00 64 1013.9
20260505172759 62 348 0.0 1.0 0.00 0.00 0.00 63 1013.8
20260505171808 62 149 0.0 0.0 0.00 0.00 0.00 65 1013.8
20260505171603 62 146 0.0 3.0 0.00 0.00 0.00 65 1013.8
20260505170824 63 39 0.0 2.0 0.00 0.00 0.00 64 1013.8
20260505170114 62 54 0.0 2.0 0.00 0.00 0.00 63 1013.8
20260505164711 63 319 0.0 3.0 0.00 0.00 0.00 64 1013.6
20260505164503 62 201 0.0 3.0 0.00 0.00 0.00 67 1013.7
20260505163702 62 35 0.0 3.0 0.00 0.00 0.00 65 1013.6
20260505163113 61 278 1.0 4.0 0.00 0.00 0.00 68 1013.5
20260505161553 61 3 0.0 3.0 0.00 0.00 0.00 68 1013.5
20260505161503 60 47 0.0 4.0 0.00 0.00 0.00 68 1013.5
20260505160554 59 43 0.0 3.0 0.00 0.00 0.00 70 1013.3
20260505153111 57 58 0.0 3.0 0.00 0.00 0.00 73 1013.4
20260505152540 57 54 0.0 0.0 0.00 0.00 0.00 76 1013.4
20260505151542 56 320 0.0 0.0 0.00 0.00 0.00 77 1013.3
20260505151503 55 320 0.0 2.0 0.00 0.00 0.00 77 1013.4
20260505150601 56 326 0.0 0.0 0.00 0.00 0.00 77 1013.2
20260505140514 52 354 0.0 0.0 0.00 0.00 0.00 83 1013.0
20260505140132 51 343 0.0 1.0 0.00 0.00 0.00 84 1013.1
20260505130103 49 351 0.0 1.0 0.00 0.00 0.00 86 1012.8
20260505124501 49 351 0.0 1.0 0.00 0.00 0.00 85 1012.7
20260505124324 50 351 0.0 0.0 0.00 0.00 0.00 85 1012.7
20260505123333 51 351 0.0 0.0 0.00 0.00 0.00 83 1012.7
20260505123114 51 351 0.0 0.0 0.00 0.00 0.00 82 1012.7
20260505122349 52 351 0.0 0.0 0.00 0.00 0.00 83 1012.6
20260505121504 51 333 0.0 1.0 0.00 0.00 0.00 84 1012.7
20260505121342 51 333 0.0 0.0 0.00 0.00 0.00 84 1012.6
20260505120345 51 333 0.0 0.0 0.00 0.00 0.00 83 1012.7
20260505120004 51 332 0.0 1.0 0.00 0.00 0.00 82 1012.8
20260505115316 52 332 0.0 0.0 0.00 0.00 0.00 83 1012.7
20260505114606 51 341 0.0 0.0 0.00 0.00 0.00 82 1012.7
20260505114339 52 342 0.0 0.0 0.00 0.00 0.00 82 1012.7
20260505113403 53 341 0.0 0.0 0.00 0.00 0.00 80 1012.6
20260505113007 53 341 0.0 1.0 0.00 0.00 0.00 80 1012.6
20260505112345 54 341 0.0 0.0 0.00 0.00 0.00 79 1012.6
20260505111604 54 341 0.0 1.0 0.00 0.00 0.00 78 1012.7
20260505111354 54 341 0.0 0.0 0.00 0.00 0.00 78 1012.7
20260505100003 54 41 0.0 3.0 0.00 0.00 0.00 78 1012.8
20260505095847 55 41 0.0 0.0 0.00 0.00 0.00 78 1012.8
20260505094817 55 19 0.0 4.0 0.00 0.00 0.00 78 1012.8
20260505094611 54 35 0.0 3.0 0.00 0.00 0.00 78 1012.9
20260505093759 55 339 0.0 6.0 0.00 0.00 0.00 78 1012.9
20260505093003 54 44 1.0 5.0 0.00 0.00 0.00 78 1013.0
20260505092820 55 19 0.0 4.0 0.00 0.00 0.00 78 1013.0
20260505091817 55 329 0.0 2.0 0.00 0.00 0.00 78 1013.2
20260505091603 54 47 0.0 4.0 0.00 0.00 0.00 78 1013.3
20260505090834 55 340 0.0 2.0 0.00 0.00 0.00 77 1013.4
20260505090111 54 343 0.0 6.0 0.00 0.00 0.00 77 1013.4
20260505084502 54 349 1.0 5.0 0.00 0.00 0.00 77 1013.5
20260505083110 55 356 2.0 5.0 0.00 0.00 0.00 78 1013.7
20260505082359 55 342 0.0 3.0 0.00 0.00 0.00 78 1013.7
20260505081503 54 323 1.0 6.0 0.00 0.00 0.00 79 1013.7
20260505081357 55 285 0.0 4.0 0.00 0.00 0.00 79 1013.7
20260505080416 54 79 0.0 1.0 0.00 0.00 0.00 83 1013.7
20260505080002 54 156 0.0 1.0 0.00 0.00 0.00 86 1013.8
20260505075412 55 186 0.0 0.0 0.00 0.00 0.00 87 1013.8
20260505074602 54 16 0.0 1.0 0.00 0.00 0.00 87 1013.9
20260505074359 55 17 0.0 0.0 0.00 0.00 0.00 87 1013.9
20260505073343 55 358 0.0 0.0 0.00 0.00 0.00 87 1013.9
20260505073005 55 359 0.0 1.0 0.00 0.00 0.00 87 1014.0
20260505072349 55 3 0.0 0.0 0.00 0.00 0.00 88 1014.1
20260505071606 55 80 0.0 1.0 0.00 0.00 0.00 89 1014.0
20260505071410 55 110 0.0 0.0 0.00 0.00 0.00 89 1013.9
20260505070427 55 163 0.0 0.0 0.00 0.00 0.00 88 1014.0
20260505065415 55 163 0.0 0.0 0.00 0.00 0.00 88 1014.0
20260505064503 55 163 0.0 0.0 0.00 0.00 0.00 88 1014.2
20260505064427 55 163 0.0 0.0 0.00 0.00 0.00 88 1014.1
20260505063404 55 163 0.0 0.0 0.00 0.00 0.00 87 1014.0
20260505063104 55 163 0.0 0.0 0.00 0.00 0.00 88 1014.1
20260505061507 55 163 0.0 1.0 0.00 0.00 0.00 87 1014.1
20260505061230 55 146 0.0 0.0 0.00 0.00 0.00 87 1014.1
20260505060205 55 32 0.0 0.0 0.00 0.00 0.00 86 1014.2
20260505060002 55 32 0.0 0.0 0.00 0.00 0.00 86 1014.2
20260505055216 55 32 0.0 0.0 0.00 0.00 0.00 86 1014.2
20260505054603 55 32 0.0 0.0 0.00 0.00 0.00 86 1014.2
20260505054226 55 32 0.0 0.0 0.00 0.00 0.00 86 1014.2
20260505053204 55 32 0.0 0.0 0.00 0.00 0.00 86 1014.1
20260505053004 55 32 0.0 0.0 0.00 0.00 0.00 86 1014.2
20260505052220 55 32 0.0 0.0 0.00 0.00 0.00 85 1014.1
20260505051602 55 32 0.0 0.0 0.00 0.00 0.00 85 1014.3
20260505050128 55 32 0.0 1.0 0.00 0.00 0.00 84 1014.4